E1763 Weather Reports


Display with metric or nautical units.
time (UTC)temp
F
wind
direction
speed
MPH
gust
MPH
rain 1hr
in
rain 24hr
in
rain mn
in
humidity
%
barometer
mb
20260831193025 62 279 0.0 0.0 0.00 0.01 0.01 86 1008.5
20260831191516 61 263 0.0 2.0 0.00 0.01 0.01 89 1008.4
20260831190014 60 294 0.0 0.0 0.00 0.01 0.01 92 1008.5
20260831184511 59 5 0.0 0.0 0.00 0.01 0.01 94 1008.7
20260831183007 57 5 0.0 0.0 0.00 0.01 0.01 95 1008.6
20260831181504 56 216 0.0 2.0 0.00 0.01 0.01 96 1008.5
20260831180003 56 249 0.0 0.0 0.00 0.01 0.01 96 1008.4
20260831174503 56 78 0.0 0.0 0.00 0.01 0.01 96 1008.2
20260831173106 56 24 0.0 0.0 0.00 0.01 0.01 96 1008.1
20260831171606 55 273 0.0 0.0 0.00 0.01 0.01 96 1008.1
20260831170057 55 188 0.0 0.0 0.00 0.01 0.01 96 1008.0
20260831164601 55 187 0.0 0.0 0.00 0.01 0.01 96 1007.9
20260831163053 54 188 0.0 0.0 0.00 0.01 0.01 96 1007.9
20260831161551 54 188 0.0 0.0 0.00 0.01 0.01 96 1007.9
20260831160117 54 188 0.0 0.0 0.00 0.01 0.01 96 1007.9
20260831154547 53 187 0.0 0.0 0.00 0.01 0.01 96 1007.8
20260831153120 53 188 0.0 0.0 0.00 0.01 0.01 96 1007.7
20260831151542 52 188 0.0 0.0 0.00 0.01 0.01 96 1007.6
20260831150040 51 188 0.0 0.0 0.00 0.01 0.01 96 1007.5
20260831144537 51 188 0.0 0.0 0.00 0.01 0.01 96 1007.3
20260831143038 51 188 0.0 0.0 0.00 0.01 0.01 96 1007.2
20260831141539 51 188 0.0 0.0 0.00 0.01 0.01 96 1007.0
20260831140032 51 187 0.0 0.0 0.00 0.01 0.01 96 1006.8
20260831134530 51 188 0.0 0.0 0.00 0.01 0.01 96 1006.7
20260831133031 50 188 0.0 0.0 0.00 0.01 0.01 96 1006.6
20260831131531 50 187 0.0 0.0 0.00 0.01 0.01 96 1006.6
20260831130026 50 188 0.0 0.0 0.00 0.01 0.01 96 1006.5
20260831124524 50 238 0.0 0.0 0.00 0.01 0.01 96 1006.3
20260831123039 50 242 0.0 0.0 0.00 0.01 0.01 96 1006.4
20260831121528 50 242 0.0 0.0 0.00 0.01 0.01 95 1006.4
20260831120033 50 242 0.0 0.0 0.00 0.01 0.01 95 1006.3
20260831114523 50 242 0.0 0.0 0.00 0.01 0.01 95 1006.3
20260831113023 51 242 0.0 0.0 0.01 0.01 0.01 95 1006.2
20260831111517 50 242 0.0 0.0 0.01 0.01 0.01 95 1005.9
20260831110014 51 242 0.0 0.0 0.01 0.01 0.01 95 1005.9
20260831104527 51 242 0.0 0.0 0.01 0.01 0.01 95 1005.8
20260831103014 51 242 0.0 0.0 0.00 0.00 0.00 95 1005.7
20260831101520 51 242 0.0 0.0 0.00 0.00 0.00 95 1005.6
20260831100021 51 242 0.0 0.0 0.00 0.00 0.00 94 1005.6
20260831094509 52 242 0.0 0.0 0.00 0.00 0.00 95 1005.6
20260831093009 51 30 0.0 0.0 0.00 0.00 0.00 94 1005.6
20260831091508 51 30 0.0 0.0 0.00 0.00 0.00 95 1005.5
20260831090006 51 30 0.0 0.0 0.00 0.00 0.00 94 1005.5
20260831084505 51 30 0.0 0.0 0.00 0.00 0.00 94 1005.6
20260831083004 51 30 0.0 0.0 0.00 0.00 0.00 94 1005.5
20260831081502 52 30 0.0 0.0 0.00 0.00 0.00 94 1005.7
20260831080100 51 46 0.0 0.0 0.00 0.00 0.00 94 1005.7
20260831074558 52 197 0.0 0.0 0.00 0.00 0.00 94 1006.0
20260831073058 52 197 0.0 0.0 0.00 0.00 0.00 93 1005.9
20260831071602 52 196 0.0 0.0 0.00 0.00 0.00 94 1006.0
20260831070110 52 196 0.0 0.0 0.00 0.00 0.00 93 1006.0
20260831064551 53 197 0.0 0.0 0.00 0.00 0.00 93 1006.1
20260831063050 53 196 0.0 0.0 0.00 0.00 0.00 93 1006.2
20260831061548 53 196 0.0 0.0 0.00 0.00 0.00 93 1006.3
20260831060058 53 196 0.0 0.0 0.00 0.00 0.00 92 1006.5
20260831054547 53 196 0.0 0.0 0.00 0.00 0.00 92 1006.5
20260831053045 53 205 0.0 0.0 0.00 0.00 0.00 92 1006.5
20260831051558 53 211 0.0 0.0 0.00 0.00 0.00 91 1006.7
20260831050047 54 211 0.0 0.0 0.00 0.00 0.00 91 1006.8
20260831044544 54 211 0.0 0.0 0.00 0.00 0.00 90 1007.0
20260831043042 54 211 0.0 0.0 0.00 0.00 0.00 89 1007.0
20260831041542 55 211 0.0 0.0 0.00 0.00 0.00 88 1006.9
20260831040047 55 211 0.0 0.0 0.00 0.00 0.00 87 1006.7
20260831034541 56 211 0.0 0.0 0.00 0.00 0.00 86 1006.6
20260831033040 57 221 0.0 0.0 0.00 0.00 0.00 84 1006.6
20260831031542 58 197 0.0 0.0 0.00 0.00 0.00 82 1006.6
20260831030039 59 221 0.0 0.0 0.00 0.00 0.00 79 1006.5
20260831024539 61 208 0.0 0.0 0.00 0.00 0.00 76 1006.4
20260831023042 63 205 0.0 0.0 0.00 0.00 0.00 72 1006.4
20260831021552 65 229 0.0 0.0 0.00 0.00 0.00 69 1006.4
20260831020038 67 222 0.0 0.0 0.00 0.00 0.00 66 1006.5
20260831014537 69 201 0.0 0.0 0.00 0.00 0.00 63 1006.6
20260831013037 71 221 0.0 0.0 0.00 0.00 0.00 59 1006.5
20260831011540 73 211 0.0 0.0 0.00 0.00 0.00 57 1006.5
20260831010058 74 180 0.0 0.0 0.00 0.00 0.00 55 1006.4
20260831004536 75 156 0.0 0.0 0.00 0.00 0.00 54 1006.6
20260831003032 76 231 0.0 0.0 0.00 0.00 0.00 53 1006.6
20260831001549 76 296 0.0 0.0 0.00 0.00 0.00 54 1006.6
20260831000029 78 191 0.0 0.0 0.00 0.00 0.00 51 1006.6
20260830234530 79 201 0.0 0.0 0.00 0.00 0.00 52 1006.7
20260830233027 79 168 0.0 0.0 0.00 0.00 0.00 49 1006.6
20260830231530 80 220 0.0 0.0 0.00 0.00 0.00 48 1006.8
20260830230022 80 180 0.0 1.0 0.00 0.00 0.00 47 1006.9
20260830224521 81 234 0.0 0.0 0.00 0.00 0.00 47 1007.0
20260830223022 80 218 0.0 0.0 0.00 0.00 0.00 46 1007.1
20260830221518 81 205 0.0 1.0 0.00 0.00 0.00 43 1007.3
20260830220018 80 177 0.0 0.0 0.00 0.00 0.00 47 1007.5
20260830214512 80 232 1.0 5.0 0.00 0.00 0.00 49 1007.6
20260830213009 80 202 0.0 3.0 0.00 0.00 0.00 47 1007.9
20260830211516 80 188 0.0 0.0 0.00 0.00 0.00 49 1007.9
20260830210007 80 171 0.0 0.0 0.00 0.00 0.00 50 1008.1
20260830204504 79 185 0.0 0.0 0.00 0.00 0.00 50 1008.1
20260830203119 79 237 0.0 0.0 0.00 0.00 0.00 49 1008.1
20260830201600 80 226 0.0 2.0 0.00 0.00 0.00 50 1008.3
20260830200100 81 226 0.0 1.0 0.00 0.00 0.00 50 1008.3
20260830194552 79 182 0.0 3.0 0.00 0.00 0.00 49 1008.3